Regional Weather Roundup
Issued by NWS

Home | Current Version | Previous Version | Text Only | Print | Product List | Glossary Off
Versions: 1 2 3 4 5 6 7 8 9 10 11 12 13 14 15 16 17 18 19 20 21 22 23 24 25 26 27 28 29 30 31 32 33 34 35 36 37 38 39 40 41 42 43 44 45 46 47 48 49 50

833
ASUS43 KFSD 250210
RWRSD

WEATHER ROUNDUP FOR SOUTH DAKOTA
NATIONAL WEATHER SERVICE SIOUX FALLS SD
900 PM CDT SUN SEP 24 2017

NOTE: "FAIR" INDICATES FEW OR NO CLOUDS BELOW 12,000 FEET WITH NO
SIGNIFICANT WEATHER AND/OR OBSTRUCTIONS TO VISIBILITY.


SDZ001>005-009-010-012>017-250300-
NORTHWEST AND NORTH CENTRAL SOUTH DAKOTA

CITY           SKY/WX    TMP DP  RH WIND       PRES   REMARKS
BUFFALO          N/A     45  42  89 NW12      30.06R
FAITH            N/A     47  46  97 N7        30.11R
MOBRIDGE       CLOUDY    52  47  83 NW9       30.06R
$$

SDZ012>016-024>037-041>051-057-063-072>074-250300-
SOUTHWEST AND SOUTH CENTRAL SOUTH DAKOTA

CITY           SKY/WX    TMP DP  RH WIND       PRES   REMARKS
RAPID CTY ARPT CLOUDY    48  41  76 N10       30.10R
PIERRE         CLOUDY    52  46  80 N12       30.07R
CUSTER         CLOUDY    39  37  92 E7        30.09R FOG
ELLSWORTH AFB  CLOUDY    48  44  85 N7        30.10
PHILIP         CLOUDY    51  46  83 N9        30.08F
PINE RIDGE     CLOUDY    49  45  86 NE3       30.08R
SPEARFISH      LGT RAIN  43  43 100 CALM      30.13R
WINNER         CLOUDY    54  49  83 N8        30.06R
$$

SDZ004>011-016>023-039-040-250300-
NORTHEAST SOUTH DAKOTA

CITY           SKY/WX    TMP DP  RH WIND       PRES   REMARKS
ABERDEEN       CLOUDY    52  49  89 N10       30.03R
WATERTOWN      CLOUDY    52  51  97 NW17      29.98R
BROOKINGS      CLOUDY    55  52  89 NW13      29.99R
SISSETON         N/A     54  51  90 NW10      29.99R
$$

SDZ017-020-022-023-036>040-048>070-250300-
SOUTHEAST SOUTH DAKOTA

CITY           SKY/WX    TMP DP  RH WIND       PRES   REMARKS
SIOUX FALLS    CLOUDY    58  55  90 NW9       29.98S
HURON          CLOUDY    54  51  90 NW10      30.01R
CHAMBERLAIN    CLOUDY    55  51  85 N9G17     30.05R
MITCHELL       CLOUDY    56  52  86 N10       30.01R
YANKTON        CLOUDY    57  54  89 NW9       30.01R
$$

ABBREVIATIONS USED IN REMARKS
   TC - TEMPERATURE IN CELSIUS
  WCI - WIND CHILL INDEX
   HX - HEAT INDEX
  VSB - VISIBILITY





USA.gov is the U.S. government's official web portal to all federal, state and local government web resources and services.